Regional Weather Roundup
Issued by NWS

Home | Current Version | Previous Version | Text Only | Print | Product List | Glossary On
Versions: 1 2 3 4 5 6 7 8 9 10 11 12 13 14 15 16 17 18 19 20 21 22 23 24 25 26 27 28 29 30 31 32 33 34 35 36 37 38 39 40 41 42 43 44 45 46 47 48 49 50
000
ASUS43 KMKX 140620
RWRWI

WISCONSIN REGIONAL WEATHER ROUNDUP
NATIONAL WEATHER SERVICE MILWAUKEE/SULLIVAN WI
1200 AM CST THU DEC 14 2017

NOTE: "FAIR" INDICATES FEW OR NO CLOUDS BELOW 12,000 FEET WITH NO
SIGNIFICANT WEATHER AND/OR OBSTRUCTIONS TO VISIBILITY.

WIZ001-002-006>008-014>016-023>028-140700-
NORTHWEST WISCONSIN

CITY           SKY/WX    TMP DP  RH WIND       PRES   REMARKS
SUPERIOR ARPT  CLEAR      9   7  90 CALM      29.97R
6HR MIN TEMP:   9; 6HR MAX TEMP:  24;

ASHLAND        PTCLDY    11   8  88 NW6       29.94R WCI   1
6HR MIN TEMP:  11; 6HR MAX TEMP:  22; 6HR PCP: TRACE;

HAYWARD        CLOUDY    18  13  80 CALM      29.91R
6HR MIN TEMP:  13; 6HR MAX TEMP:  21; 6HR PCP: TRACE;

SIREN          MOCLDY    12  10  93 CALM      29.94R
6HR MIN TEMP:  11; 6HR MAX TEMP:  20;

CUMBERLAND     FLURRIES  14  10  85 NW3       29.91R
RICE LAKE      FLURRIES  15  14  95 CALM      29.94R
6HR MIN TEMP:  14; 6HR MAX TEMP:  19;

CHETEK         CLOUDY    16  14  92 CALM      29.92R
6HR MIN TEMP:  12; 6HR MAX TEMP:  17;

LADYSMITH      CLEAR     11   9  90 NW6       29.91R WCI   2
6HR MIN TEMP:   9; 6HR MAX TEMP:  17;

EAU CLAIRE     CLEAR      7   5  91 CALM      29.93R
6HR MIN TEMP:   7; 6HR MAX TEMP:  19;

MENOMONIE      CLEAR     11   8  89 SW3       29.94R
6HR MIN TEMP:  10; 6HR MAX TEMP:  20;

NEW RICHMOND   CLOUDY     8   5  86 CALM      29.94R
6HR MIN TEMP:   7; 6HR MAX TEMP:  21;

OSCEOLA        MOCLDY    15  15 100 CALM      29.98R
6HR MIN TEMP:  15; 6HR MAX TEMP:  23;

$$

WIZ003>005-009-010-017-018-140700-
NORTH CENTRAL WISCONSIN

CITY           SKY/WX    TMP DP  RH WIND       PRES   REMARKS
MANITOWISH WTR FLURRIES  13  11  92 NW3       29.83S
6HR MIN TEMP:  13; 6HR MAX TEMP:  16;

ARBOR VITAE    CLOUDY    17  11  78 N3        29.82F
6HR MIN TEMP:  13; 6HR MAX TEMP:  18; 6HR PCP:  0.02;

WOODRUFF       CLOUDY    17  11  78 N3        29.82F
6HR MIN TEMP:  13; 6HR MAX TEMP:  18; 6HR PCP:  0.02;

RHINELANDER    CLOUDY    15   9  76 NW6       29.83R WCI   6
6HR MIN TEMP:  13; 6HR MAX TEMP:  16; 6HR PCP: TRACE;

EAGLE RIVER    LGT SNOW  14  10  83 NW5       29.82R WCI   7
6HR MIN TEMP:  13; 6HR MAX TEMP:  16;

LAND O LAKES   CLOUDY    14   8  76 N8        29.83S WCI   3
6HR MIN TEMP:  14; 6HR MAX TEMP:  17;

PHILLIPS       FLURRIES  12  11  95 NW3       29.85S
6HR MIN TEMP:   8; 6HR MAX TEMP:  15;

TOMAHAWK       CLOUDY    14  11  88 N3        29.84S
6HR MIN TEMP:   9; 6HR MAX TEMP:  15;

MEDFORD        PTCLDY     9   7  91 CALM      29.85S
6HR MIN TEMP:   9; 6HR MAX TEMP:  16;

MERRILL        FLURRIES  13  10  88 CALM      29.86S
6HR MIN TEMP:  11; 6HR MAX TEMP:  18;

$$

WIZ029-030-035-036-043>047-140700-
CENTRAL WISCONSIN

CITY           SKY/WX    TMP DP  RH WIND       PRES   REMARKS
WAUSAU         PTCLDY    11   8  88 NW5       29.85R WCI   3
6HR MIN TEMP:  11; 6HR MAX TEMP:  18; 6HR PCP: TRACE;

MOSINEE        PTCLDY    10   9  92 NW5       29.87R WCI   2
MARSHFIELD     PTCLDY     8   5  87 N7        29.86R WCI  -3
6HR MIN TEMP:   5; 6HR MAX TEMP:  19; 6HR PCP: TRACE;

STEVENS POINT  CLOUDY     2   0  91 CALM      29.88R
6HR MIN TEMP:   2; 6HR MAX TEMP:  18;

WAUPACA        CLOUDY     8   4  81 CALM      29.89R
6HR MIN TEMP:   8; 6HR MAX TEMP:  23;

WAUTOMA        CLOUDY     5   1  83 CALM      29.90R
6HR MIN TEMP:   5; 6HR MAX TEMP:  23;

WISC RAPIDS    CLOUDY    10   7  87 N5        29.90R WCI   2
6HR MIN TEMP:   9; 6HR MAX TEMP:  21; 6HR PCP: TRACE;

CAMP DOUGLAS   CLEAR     10   7  88 W7        29.90R WCI  -1
6HR MIN TEMP:  10; 6HR MAX TEMP:  20; 6HR PCP: TRACE;

$$

WIZ011>013-019>022-031-037>040-048>050-140700-
NORTHEAST WISCONSIN

CITY           SKY/WX    TMP DP  RH WIND       PRES   REMARKS
ANTIGO         CLOUDY     9   7  92 NW5       29.83R WCI   0
6HR MIN TEMP:   5; 6HR MAX TEMP:  15;

SHAWANO        CLOUDY     8   6  90 CALM      29.87R
6HR MIN TEMP:   7; 6HR MAX TEMP:  20;

OCONTO         CLOUDY     0  -3  87 W3        29.86S
6HR MIN TEMP:  -2; 6HR MAX TEMP:  18;

STURGEON BAY   FLURRIES  18  12  79 NW10      29.84S WCI   6
6HR MIN TEMP:  15; 6HR MAX TEMP:  22; 6HR PCP: TRACE;

GREEN BAY      CLOUDY     6   3  87 NW9       29.87S WCI  -8
6HR MIN TEMP:   5; 6HR MAX TEMP:  25; 6HR PCP:  0.01;

MANITOWOC      FLURRIES  14   9  80 NW7       29.85R WCI   4
6HR MIN TEMP:  13; 6HR MAX TEMP:  25; 6HR PCP:  0.01;

APPLETON       CLOUDY     9   3  78 W7        29.85R WCI  -3
CLINTONVILLE   CLOUDY    10   7  85 NW5       29.88R WCI   2
OSHKOSH        CLEAR     13   8  81 NW9       29.87R WCI   1
6HR MIN TEMP:  12; 6HR MAX TEMP:  26; 6HR PCP: TRACE;

$$

WIZ032>034-041-042-053>061-140700-
SOUTHWEST WISCONSIN

CITY           SKY/WX    TMP DP  RH WIND       PRES   REMARKS
LA CROSSE      PTCLDY    15  10  80 NW6       29.95R WCI   6
6HR MIN TEMP:  15; 6HR MAX TEMP:  24;

SPARTA         CLEAR     11  10  92 CALM      29.93R
6HR MIN TEMP:  11; 6HR MAX TEMP:  21;

VIROQUA        PTCLDY    16  14  91 N7        29.89R WCI   6
6HR MIN TEMP:  16; 6HR MAX TEMP:  21;

BOSCOBEL       CLOUDY    19  13  77 CALM      29.93R
6HR MIN TEMP:  19; 6HR MAX TEMP:  26;

PRAIRIE DU CHI CLEAR     20  12  70 CALM      29.94R
6HR MIN TEMP:  20; 6HR MAX TEMP:  26;

PLATTEVILLE    CLOUDY    22  16  78 N14       29.89R WCI   9
6HR MIN TEMP:  22; 6HR MAX TEMP:  26;

$$

WIZ056-057-062-063-064-067-068-140700-
SOUTH CENTRAL WISCONSIN

CITY           SKY/WX    TMP DP  RH WIND       PRES   REMARKS
REEDSBURG      MOCLDY    18  13  80 N5        29.89R WCI  11
6HR MIN TEMP:  18; 6HR MAX TEMP:  21;

BARABOO/DELLS  MOCLDY    16  10  78 N3        29.88S
6HR MIN TEMP:  16; 6HR MAX TEMP:  21;

LONE ROCK      CLOUDY    21  14  74 NE5       29.92R WCI  15
6HR MIN TEMP:  20; 6HR MAX TEMP:  24;

MINERAL POINT  CLOUDY    23  18  80 N13       29.88R WCI  11
MADISON        CLEAR     15  10  80 N13       29.87R WCI   1
6HR MIN TEMP:  15; 6HR MAX TEMP:  23; 6HR PCP: TRACE;

MIDDLETON      CLEAR     19  14  81 N9        29.88R WCI   7
6HR MIN TEMP:  19; 6HR MAX TEMP:  25;

WATERTOWN      PTCLDY    15  10  81 N9        29.85S WCI   3
6HR MIN TEMP:  15; 6HR MAX TEMP:  26;

MONROE         CLEAR     21  14  73 N14       29.85R WCI   8
JANESVILLE     CLEAR     21  12  68 N6        29.86R WCI  14
$$

WIZ051-052-058>065-066-070>072-140700-
SOUTHEAST WISCONSIN

CITY           SKY/WX    TMP DP  RH WIND       PRES   REMARKS
MILWAUKEE      PTCLDY    20  13  74 NW12G22   29.83R WCI   8
6HR MIN TEMP:  20; 6HR MAX TEMP:  30; 6HR PCP:  0.01;

WAUKESHA       CLEAR     14   9  79 NW9       29.84R WCI   2
MILWAUKEE/TIMM PTCLDY    18   9  68 NW16      29.85R WCI   3
RACINE         MOCLDY    22  14  71 NW15G24   29.84R WCI   9
6HR MIN TEMP:  22; 6HR MAX TEMP:  29; 6HR PCP: TRACE;

BURLINGTON     CLEAR     18  15  85 N12       29.84R WCI   6
6HR MIN TEMP:  18; 6HR MAX TEMP:  26;

KENOSHA        PTCLDY    22  15  75 N12G22    29.81R WCI  10
6HR MIN TEMP:  22; 6HR MAX TEMP:  29; 6HR PCP: TRACE;

FOND DU LAC    FLURRIES  13   5  70 NW8       29.87R WCI   2
6HR MIN TEMP:  13; 6HR MAX TEMP:  26; 6HR PCP: TRACE;

SHEBOYGAN      CLEAR     14   8  77 N10       29.83R WCI   1
6HR MIN TEMP:  14; 6HR MAX TEMP:  25; 6HR PCP: TRACE;

WEST BEND      PTCLDY    14  10  85 NW7       29.84R WCI   4
JUNEAU         CLEAR     13   7  77 N9        29.87R WCI   1
6HR MIN TEMP:  13; 6HR MAX TEMP:  25;

$$

LSZ147-162-140700-
LAKE SUPERIOR

STATION/POSITION TIME  TEMP    WIND        PRES    WAVE
                       AIR SEA DIR/SP/G            HT/PER
                 (UTC) (F)     (DEG/KT/KT) (MB)    (FT/S)
DEVILS ISLAND    0600   18     360/ 10/ 12 1015.2R
SAXON HARBOR     0540   22                 1012.9S
$$

LMZ867-665-643>646-140700-
LAKE MICHIGAN

STATION/POSITION TIME  TEMP    WIND        PRES    WAVE
                       AIR SEA DIR/SP/G            HT/PER




USA.gov is the U.S. government's official web portal to all federal, state and local government web resources and services.